Regional Weather Roundup
Issued by NWS

Home | Current Version | Previous Version | Text Only | Print | Product List | Glossary Off
Versions: 1 2 3 4 5 6 7 8 9 10 11 12 13 14 15 16 17 18 19 20 21 22 23 24 25 26 27 28 29 30 31 32 33 34 35 36 37 38 39 40 41 42 43 44 45 46 47 48 49 50

000
ASUS43 KFSD 261602
RWRSD

WEATHER ROUNDUP FOR SOUTH DAKOTA
NATIONAL WEATHER SERVICE SIOUX FALLS SD
1100 AM CDT SUN MAR 26 2017

NOTE: "FAIR" INDICATES FEW OR NO CLOUDS BELOW 12,000 FEET WITH NO
SIGNIFICANT WEATHER AND/OR OBSTRUCTIONS TO VISIBILITY.


SDZ001>005-009-010-012>017-261700-
NORTHWEST AND NORTH CENTRAL SOUTH DAKOTA

CITY           SKY/WX    TMP DP  RH WIND       PRES   REMARKS
BUFFALO          N/A     50  38  63 NE6       29.86S
FAITH            N/A     39  38  96 MISG      29.91F
MOBRIDGE       CLOUDY    40  36  86 S3        29.91R
$$

SDZ012>016-024>037-041>051-057-063-072>074-261700-
SOUTHWEST AND SOUTH CENTRAL SOUTH DAKOTA

CITY           SKY/WX    TMP DP  RH WIND       PRES   REMARKS
RAPID CTY ARPT CLOUDY    42  38  85 N12       29.92R
PIERRE         CLOUDY    40  37  89 SE6       29.93R
CUSTER         LGT RAIN  41  34  76 VRB3      29.89R
ELLSWORTH AFB  LGT RAIN  41  41 100 N12       29.92
PHILIP         CLOUDY    40  39  97 NE8       29.91S
PINE RIDGE     CLOUDY    48  36  63 N13       29.89R
SPEARFISH      LGT RAIN  39  37  93 NW7       29.94R
WINNER         CLOUDY    42  39  89 E8        29.92R
$$

SDZ004>011-016>023-039-040-261700-
NORTHEAST SOUTH DAKOTA

CITY           SKY/WX    TMP DP  RH WIND       PRES   REMARKS
ABERDEEN       CLOUDY    40  34  79 E7        29.95F
WATERTOWN      CLOUDY    38  35  89 NE6       29.94R
BROOKINGS      CLOUDY    38  35  89 NE7       29.93S
SISSETON         N/A     38  38 100 N6        29.96S
$$

SDZ017-020-022-023-036>040-048>070-261700-
SOUTHEAST SOUTH DAKOTA

CITY           SKY/WX    TMP DP  RH WIND       PRES   REMARKS
SIOUX FALLS    CLOUDY    41  38  89 NE7       29.93S
HURON          CLOUDY    41  37  86 VRB3      29.95R
CHAMBERLAIN    CLOUDY    42  41  98 E5        29.95R FOG
MITCHELL       CLOUDY    42  38  85 NE3       29.95S
YANKTON        CLOUDY    39  37  93 N3        29.94S
$$

ABBREVIATIONS USED IN REMARKS
   TC - TEMPERATURE IN CELSIUS
  WCI - WIND CHILL INDEX
   HX - HEAT INDEX
  VSB - VISIBILITY




USA.gov is the U.S. government's official web portal to all federal, state and local government web resources and services.